owner,sensor,date,latitude,longitude,sea_surface_height_above_sea_level,qcFlag 
COMPS,ioos:station:USF.COMPS:ANM:1,2008-08-01T00:00:00Z,27.5400,-82.7400,-0.5,1111122 
COMPS,ioos:station:USF.COMPS:ANM:1,2008-08-01T00:06:00Z,27.5400,-82.7400,-0.486,1111122 
COMPS,ioos:station:USF.COMPS:ANM:1,2008-08-01T00:12:00Z,27.5400,-82.7400,-0.479,1111122 
COMPS,ioos:station:USF.COMPS:ANM:1,2008-08-01T00:18:00Z,27.5400,-82.7400,-0.461,1111122 
COMPS,ioos:station:USF.COMPS:ANM:1,2008-08-01T00:24:00Z,27.5400,-82.7400,-0.435,1111122 
COMPS,ioos:station:USF.COMPS:ANM:1,2008-08-01T00:30:00Z,27.5400,-82.7400,-0.422,1111122 
COMPS,ioos:station:USF.COMPS:ANM:1,2008-08-01T00:36:00Z,27.5400,-82.7400,-0.412,1111122 
COMPS,ioos:station:USF.COMPS:ANM:1,2008-08-01T00:42:00Z,27.5400,-82.7400,-0.393,1111122 
COMPS,ioos:station:USF.COMPS:ANM:1,2008-08-01T00:48:00Z,27.5400,-82.7400,-0.38,1111122 
COMPS,ioos:station:USF.COMPS:ANM:1,2008-08-01T00:54:00Z,27.5400,-82.7400,-0.362,1111122 
COMPS,ioos:station:USF.COMPS:ANM:1,2008-08-01T01:00:00Z,27.5400,-82.7400,-0.342,1111122 
COMPS,ioos:station:USF.COMPS:ANM:1,2008-08-01T01:06:00Z,27.5400,-82.7400,-0.321,1111122 
COMPS,ioos:station:USF.COMPS:ANM:1,2008-08-01T01:12:00Z,27.5400,-82.7400,-0.311,1111122 
COMPS,ioos:station:USF.COMPS:ANM:1,2008-08-01T01:18:00Z,27.5400,-82.7400,-0.299,1111122 
COMPS,ioos:station:USF.COMPS:ANM:1,2008-08-01T01:24:00Z,27.5400,-82.7400,-0.279,1111122 
COMPS,ioos:station:USF.COMPS:ANM:1,2008-08-01T01:30:00Z,27.5400,-82.7400,-0.278,1111122 
COMPS,ioos:station:USF.COMPS:ANM:1,2008-08-01T01:36:00Z,27.5400,-82.7400,-0.263,1111122 
COMPS,ioos:station:USF.COMPS:ANM:1,2008-08-01T01:42:00Z,27.5400,-82.7400,-0.254,1111122 
COMPS,ioos:station:USF.COMPS:ANM:1,2008-08-01T01:48:00Z,27.5400,-82.7400,-0.244,1111122 
COMPS,ioos:station:USF.COMPS:ANM:1,2008-08-01T01:54:00Z,27.5400,-82.7400,-0.226,1111122 
COMPS,ioos:station:USF.COMPS:ANM:1,2008-08-01T02:00:00Z,27.5400,-82.7400,-0.209,1111122 
COMPS,ioos:station:USF.COMPS:ANM:1,2008-08-01T02:06:00Z,27.5400,-82.7400,-0.199,1111122 
COMPS,ioos:station:USF.COMPS:ANM:1,2008-08-01T02:12:00Z,27.5400,-82.7400,-0.193,1111122 
COMPS,ioos:station:USF.COMPS:ANM:1,2008-08-01T02:18:00Z,27.5400,-82.7400,-0.185,1111122 
COMPS,ioos:station:USF.COMPS:ANM:1,2008-08-01T02:24:00Z,27.5400,-82.7400,-0.174,1111122 
COMPS,ioos:station:USF.COMPS:ANM:1,2008-08-01T02:30:00Z,27.5400,-82.7400,-0.158,1111122 
COMPS,ioos:station:USF.COMPS:ANM:1,2008-08-01T02:36:00Z,27.5400,-82.7400,-0.139,1111122 
COMPS,ioos:station:USF.COMPS:ANM:1,2008-08-01T02:42:00Z,27.5400,-82.7400,-0.135,1111122 
COMPS,ioos:station:USF.COMPS:ANM:1,2008-08-01T02:48:00Z,27.5400,-82.7400,-0.13,1111122 
COMPS,ioos:station:USF.COMPS:ANM:1,2008-08-01T02:54:00Z,27.5400,-82.7400,-0.116,1111122 
COMPS,ioos:station:USF.COMPS:ANM:1,2008-08-01T03:00:00Z,27.5400,-82.7400,-0.11,1111122 
COMPS,ioos:station:USF.COMPS:ANM:1,2008-08-01T03:06:00Z,27.5400,-82.7400,-0.105,1111122 
COMPS,ioos:station:USF.COMPS:ANM:1,2008-08-01T03:12:00Z,27.5400,-82.7400,-0.102,1111122 
COMPS,ioos:station:USF.COMPS:ANM:1,2008-08-01T03:18:00Z,27.5400,-82.7400,-0.098,1111122 
COMPS,ioos:station:USF.COMPS:ANM:1,2008-08-01T03:24:00Z,27.5400,-82.7400,-0.081,1111122 
COMPS,ioos:station:USF.COMPS:ANM:1,2008-08-01T03:30:00Z,27.5400,-82.7400,-0.063,1111122 
COMPS,ioos:station:USF.COMPS:ANM:1,2008-08-01T03:36:00Z,27.5400,-82.7400,-0.045,1111122 
COMPS,ioos:station:USF.COMPS:ANM:1,2008-08-01T03:42:00Z,27.5400,-82.7400,-0.041,1111122 
COMPS,ioos:station:USF.COMPS:ANM:1,2008-08-01T03:48:00Z,27.5400,-82.7400,-0.04,1111122 
COMPS,ioos:station:USF.COMPS:ANM:1,2008-08-01T03:54:00Z,27.5400,-82.7400,-0.047,1111122 
COMPS,ioos:station:USF.COMPS:ANM:1,2008-08-01T04:00:00Z,27.5400,-82.7400,-0.039,1111122 
COMPS,ioos:station:USF.COMPS:ANM:1,2008-08-01T04:06:00Z,27.5400,-82.7400,-0.022,1111122 
COMPS,ioos:station:USF.COMPS:ANM:1,2008-08-01T04:12:00Z,27.5400,-82.7400,-0.005,1111122 
COMPS,ioos:station:USF.COMPS:ANM:1,2008-08-01T04:18:00Z,27.5400,-82.7400,0.003,1111122 
COMPS,ioos:station:USF.COMPS:ANM:1,2008-08-01T04:24:00Z,27.5400,-82.7400,0.013,1111122 
COMPS,ioos:station:USF.COMPS:ANM:1,2008-08-01T04:30:00Z,27.5400,-82.7400,0.009,1111122 
COMPS,ioos:station:USF.COMPS:ANM:1,2008-08-01T04:36:00Z,27.5400,-82.7400,0.015,1111122 
COMPS,ioos:station:USF.COMPS:ANM:1,2008-08-01T04:42:00Z,27.5400,-82.7400,0.021,1111122 
COMPS,ioos:station:USF.COMPS:ANM:1,2008-08-01T04:48:00Z,27.5400,-82.7400,0.025,1111122 
COMPS,ioos:station:USF.COMPS:ANM:1,2008-08-01T04:54:00Z,27.5400,-82.7400,0.033,1111122 
COMPS,ioos:station:USF.COMPS:ANM:1,2008-08-01T05:00:00Z,27.5400,-82.7400,0.041,1111122 
COMPS,ioos:station:USF.COMPS:ANM:1,2008-08-01T05:06:00Z,27.5400,-82.7400,0.046,1111122 
COMPS,ioos:station:USF.COMPS:ANM:1,2008-08-01T05:12:00Z,27.5400,-82.7400,0.058,1111122 
COMPS,ioos:station:USF.COMPS:ANM:1,2008-08-01T05:18:00Z,27.5400,-82.7400,0.057,1111122 
COMPS,ioos:station:USF.COMPS:ANM:1,2008-08-01T05:24:00Z,27.5400,-82.7400,0.052,1111122 
COMPS,ioos:station:USF.COMPS:ANM:1,2008-08-01T05:30:00Z,27.5400,-82.7400,0.054,1111122 
COMPS,ioos:station:USF.COMPS:ANM:1,2008-08-01T05:36:00Z,27.5400,-82.7400,0.066,1111122 
COMPS,ioos:station:USF.COMPS:ANM:1,2008-08-01T05:42:00Z,27.5400,-82.7400,0.068,1111122 
COMPS,ioos:station:USF.COMPS:ANM:1,2008-08-01T05:48:00Z,27.5400,-82.7400,0.066,1111122 
COMPS,ioos:station:USF.COMPS:ANM:1,2008-08-01T05:54:00Z,27.5400,-82.7400,0.07,1111122 
COMPS,ioos:station:USF.COMPS:ANM:1,2008-08-01T06:00:00Z,27.5400,-82.7400,0.064,1111122 
COMPS,ioos:station:USF.COMPS:ANM:1,2008-08-01T06:06:00Z,27.5400,-82.7400,0.067,1111122 
COMPS,ioos:station:USF.COMPS:ANM:1,2008-08-01T06:12:00Z,27.5400,-82.7400,0.065,1111122 
COMPS,ioos:station:USF.COMPS:ANM:1,2008-08-01T06:18:00Z,27.5400,-82.7400,0.063,1111122 
COMPS,ioos:station:USF.COMPS:ANM:1,2008-08-01T06:24:00Z,27.5400,-82.7400,0.055,1111122 
COMPS,ioos:station:USF.COMPS:ANM:1,2008-08-01T06:30:00Z,27.5400,-82.7400,0.052,1111122 
COMPS,ioos:station:USF.COMPS:ANM:1,2008-08-01T06:36:00Z,27.5400,-82.7400,0.054,1111122 
COMPS,ioos:station:USF.COMPS:ANM:1,2008-08-01T06:42:00Z,27.5400,-82.7400,0.045,1111122 
COMPS,ioos:station:USF.COMPS:ANM:1,2008-08-01T06:48:00Z,27.5400,-82.7400,0.045,1111122 
COMPS,ioos:station:USF.COMPS:ANM:1,2008-08-01T06:54:00Z,27.5400,-82.7400,0.048,1111122 
COMPS,ioos:station:USF.COMPS:ANM:1,2008-08-01T07:00:00Z,27.5400,-82.7400,0.036,1111122 
COMPS,ioos:station:USF.COMPS:ANM:1,2008-08-01T07:06:00Z,27.5400,-82.7400,0.032,1111122 
COMPS,ioos:station:USF.COMPS:ANM:1,2008-08-01T07:12:00Z,27.5400,-82.7400,0.025,1111122 
COMPS,ioos:station:USF.COMPS:ANM:1,2008-08-01T07:18:00Z,27.5400,-82.7400,0.022,1111122 
COMPS,ioos:station:USF.COMPS:ANM:1,2008-08-01T07:24:00Z,27.5400,-82.7400,0.004,1111122 
COMPS,ioos:station:USF.COMPS:ANM:1,2008-08-01T07:30:00Z,27.5400,-82.7400,0.003,1111122 
COMPS,ioos:station:USF.COMPS:ANM:1,2008-08-01T07:36:00Z,27.5400,-82.7400,0.001,1111122 
COMPS,ioos:station:USF.COMPS:ANM:1,2008-08-01T07:42:00Z,27.5400,-82.7400,-0.001,1111122 
COMPS,ioos:station:USF.COMPS:ANM:1,2008-08-01T07:48:00Z,27.5400,-82.7400,0.004,1111122 
COMPS,ioos:station:USF.COMPS:ANM:1,2008-08-01T07:54:00Z,27.5400,-82.7400,-0.016,1111122 
COMPS,ioos:station:USF.COMPS:ANM:1,2008-08-01T08:00:00Z,27.5400,-82.7400,-0.021,1111122 
COMPS,ioos:station:USF.COMPS:ANM:1,2008-08-01T08:06:00Z,27.5400,-82.7400,-0.015,1111122 
COMPS,ioos:station:USF.COMPS:ANM:1,2008-08-01T08:12:00Z,27.5400,-82.7400,-0.022,1111122 
COMPS,ioos:station:USF.COMPS:ANM:1,2008-08-01T08:18:00Z,27.5400,-82.7400,-0.026,1111122 
COMPS,ioos:station:USF.COMPS:ANM:1,2008-08-01T08:24:00Z,27.5400,-82.7400,-0.025,1111122 
COMPS,ioos:station:USF.COMPS:ANM:1,2008-08-01T08:30:00Z,27.5400,-82.7400,-0.022,1111122 
COMPS,ioos:station:USF.COMPS:ANM:1,2008-08-01T08:36:00Z,27.5400,-82.7400,-0.028,1111122 
COMPS,ioos:station:USF.COMPS:ANM:1,2008-08-01T08:42:00Z,27.5400,-82.7400,-0.04,1111122 
COMPS,ioos:station:USF.COMPS:ANM:1,2008-08-01T08:48:00Z,27.5400,-82.7400,-0.041,1111122 
COMPS,ioos:station:USF.COMPS:ANM:1,2008-08-01T08:54:00Z,27.5400,-82.7400,-0.042,1111122 
COMPS,ioos:station:USF.COMPS:ANM:1,2008-08-01T09:00:00Z,27.5400,-82.7400,-0.044,1111122 
COMPS,ioos:station:USF.COMPS:ANM:1,2008-08-01T09:06:00Z,27.5400,-82.7400,-0.042,1111122 
COMPS,ioos:station:USF.COMPS:ANM:1,2008-08-01T09:12:00Z,27.5400,-82.7400,-0.043,1111122 
COMPS,ioos:station:USF.COMPS:ANM:1,2008-08-01T09:18:00Z,27.5400,-82.7400,-0.044,1111122 
COMPS,ioos:station:USF.COMPS:ANM:1,2008-08-01T09:24:00Z,27.5400,-82.7400,-0.036,1111122 
COMPS,ioos:station:USF.COMPS:ANM:1,2008-08-01T09:30:00Z,27.5400,-82.7400,-0.035,1111122 
COMPS,ioos:station:USF.COMPS:ANM:1,2008-08-01T09:36:00Z,27.5400,-82.7400,-0.04,1111122 
COMPS,ioos:station:USF.COMPS:ANM:1,2008-08-01T09:42:00Z,27.5400,-82.7400,-0.041,1111122 
COMPS,ioos:station:USF.COMPS:ANM:1,2008-08-01T09:48:00Z,27.5400,-82.7400,-0.041,1111122 
COMPS,ioos:station:USF.COMPS:ANM:1,2008-08-01T09:54:00Z,27.5400,-82.7400,-0.043,1111122 
COMPS,ioos:station:USF.COMPS:ANM:1,2008-08-01T10:00:00Z,27.5400,-82.7400,-0.048,1111122 
COMPS,ioos:station:USF.COMPS:ANM:1,2008-08-01T10:06:00Z,27.5400,-82.7400,-0.038,1111122 
COMPS,ioos:station:USF.COMPS:ANM:1,2008-08-01T10:12:00Z,27.5400,-82.7400,-0.038,1111122 
COMPS,ioos:station:USF.COMPS:ANM:1,2008-08-01T10:18:00Z,27.5400,-82.7400,-0.035,1111122 
COMPS,ioos:station:USF.COMPS:ANM:1,2008-08-01T10:24:00Z,27.5400,-82.7400,-0.038,1111122 
COMPS,ioos:station:USF.COMPS:ANM:1,2008-08-01T10:30:00Z,27.5400,-82.7400,-0.036,1111122 
COMPS,ioos:station:USF.COMPS:ANM:1,2008-08-01T10:36:00Z,27.5400,-82.7400,-0.032,1111122 
COMPS,ioos:station:USF.COMPS:ANM:1,2008-08-01T10:42:00Z,27.5400,-82.7400,-0.022,1111122 
COMPS,ioos:station:USF.COMPS:ANM:1,2008-08-01T10:48:00Z,27.5400,-82.7400,-0.007,1111122 
COMPS,ioos:station:USF.COMPS:ANM:1,2008-08-01T10:54:00Z,27.5400,-82.7400,0.001,1111122 
COMPS,ioos:station:USF.COMPS:ANM:1,2008-08-01T11:00:00Z,27.5400,-82.7400,0.012,1111122 
COMPS,ioos:station:USF.COMPS:ANM:1,2008-08-01T11:06:00Z,27.5400,-82.7400,0.026,1111122 
COMPS,ioos:station:USF.COMPS:ANM:1,2008-08-01T11:12:00Z,27.5400,-82.7400,0.038,1111122 
COMPS,ioos:station:USF.COMPS:ANM:1,2008-08-01T11:18:00Z,27.5400,-82.7400,0.04,1111122 
COMPS,ioos:station:USF.COMPS:ANM:1,2008-08-01T11:24:00Z,27.5400,-82.7400,0.046,1111122 
COMPS,ioos:station:USF.COMPS:ANM:1,2008-08-01T11:30:00Z,27.5400,-82.7400,0.068,1111122 
COMPS,ioos:station:USF.COMPS:ANM:1,2008-08-01T11:36:00Z,27.5400,-82.7400,0.074,1111122 
COMPS,ioos:station:USF.COMPS:ANM:1,2008-08-01T11:42:00Z,27.5400,-82.7400,0.087,1111122 
COMPS,ioos:station:USF.COMPS:ANM:1,2008-08-01T11:48:00Z,27.5400,-82.7400,0.106,1111122 
COMPS,ioos:station:USF.COMPS:ANM:1,2008-08-01T11:54:00Z,27.5400,-82.7400,0.122,1111122 
COMPS,ioos:station:USF.COMPS:ANM:1,2008-08-01T12:00:00Z,27.5400,-82.7400,0.12,1111122 
COMPS,ioos:station:USF.COMPS:ANM:1,2008-08-01T12:06:00Z,27.5400,-82.7400,0.13,1111122 
COMPS,ioos:station:USF.COMPS:ANM:1,2008-08-01T12:12:00Z,27.5400,-82.7400,0.143,1111122 
COMPS,ioos:station:USF.COMPS:ANM:1,2008-08-01T12:18:00Z,27.5400,-82.7400,0.156,1111122 
COMPS,ioos:station:USF.COMPS:ANM:1,2008-08-01T12:24:00Z,27.5400,-82.7400,0.184,1111122 
COMPS,ioos:station:USF.COMPS:ANM:1,2008-08-01T12:30:00Z,27.5400,-82.7400,0.197,1111122 
COMPS,ioos:station:USF.COMPS:ANM:1,2008-08-01T12:36:00Z,27.5400,-82.7400,0.213,1111122 
COMPS,ioos:station:USF.COMPS:ANM:1,2008-08-01T12:42:00Z,27.5400,-82.7400,0.218,1111122 
COMPS,ioos:station:USF.COMPS:ANM:1,2008-08-01T12:48:00Z,27.5400,-82.7400,0.231,1111122 
COMPS,ioos:station:USF.COMPS:ANM:1,2008-08-01T12:54:00Z,27.5400,-82.7400,0.244,1111122 
COMPS,ioos:station:USF.COMPS:ANM:1,2008-08-01T13:00:00Z,27.5400,-82.7400,0.25,1111122 
COMPS,ioos:station:USF.COMPS:ANM:1,2008-08-01T13:06:00Z,27.5400,-82.7400,0.267,1111122 
COMPS,ioos:station:USF.COMPS:ANM:1,2008-08-01T13:12:00Z,27.5400,-82.7400,0.301,1111122 
COMPS,ioos:station:USF.COMPS:ANM:1,2008-08-01T13:18:00Z,27.5400,-82.7400,0.297,1111122 
COMPS,ioos:station:USF.COMPS:ANM:1,2008-08-01T13:24:00Z,27.5400,-82.7400,0.31,1111122 
COMPS,ioos:station:USF.COMPS:ANM:1,2008-08-01T13:30:00Z,27.5400,-82.7400,0.325,1111122 
COMPS,ioos:station:USF.COMPS:ANM:1,2008-08-01T13:36:00Z,27.5400,-82.7400,0.334,1111122 
COMPS,ioos:station:USF.COMPS:ANM:1,2008-08-01T13:42:00Z,27.5400,-82.7400,0.354,1111122 
COMPS,ioos:station:USF.COMPS:ANM:1,2008-08-01T13:48:00Z,27.5400,-82.7400,0.377,1111122 
COMPS,ioos:station:USF.COMPS:ANM:1,2008-08-01T13:54:00Z,27.5400,-82.7400,0.377,1111122 
COMPS,ioos:station:USF.COMPS:ANM:1,2008-08-01T14:00:00Z,27.5400,-82.7400,0.38,1111122 
COMPS,ioos:station:USF.COMPS:ANM:1,2008-08-01T14:06:00Z,27.5400,-82.7400,0.386,1111122 
COMPS,ioos:station:USF.COMPS:ANM:1,2008-08-01T14:12:00Z,27.5400,-82.7400,0.39,1111122 
COMPS,ioos:station:USF.COMPS:ANM:1,2008-08-01T14:18:00Z,27.5400,-82.7400,0.398,1111122 
COMPS,ioos:station:USF.COMPS:ANM:1,2008-08-01T14:24:00Z,27.5400,-82.7400,0.401,1111122 
COMPS,ioos:station:USF.COMPS:ANM:1,2008-08-01T14:30:00Z,27.5400,-82.7400,0.416,1111122 
COMPS,ioos:station:USF.COMPS:ANM:1,2008-08-01T14:36:00Z,27.5400,-82.7400,0.436,1111122 
COMPS,ioos:station:USF.COMPS:ANM:1,2008-08-01T14:42:00Z,27.5400,-82.7400,0.435,1111122 
COMPS,ioos:station:USF.COMPS:ANM:1,2008-08-01T14:48:00Z,27.5400,-82.7400,0.442,1111122 
COMPS,ioos:station:USF.COMPS:ANM:1,2008-08-01T14:54:00Z,27.5400,-82.7400,0.445,1111122 
COMPS,ioos:station:USF.COMPS:ANM:1,2008-08-01T15:00:00Z,27.5400,-82.7400,0.449,1111122 
COMPS,ioos:station:USF.COMPS:ANM:1,2008-08-01T15:06:00Z,27.5400,-82.7400,0.448,1111122 
COMPS,ioos:station:USF.COMPS:ANM:1,2008-08-01T15:12:00Z,27.5400,-82.7400,0.462,1111122 
COMPS,ioos:station:USF.COMPS:ANM:1,2008-08-01T15:18:00Z,27.5400,-82.7400,0.471,1111122 
COMPS,ioos:station:USF.COMPS:ANM:1,2008-08-01T15:24:00Z,27.5400,-82.7400,0.473,1111122 
COMPS,ioos:station:USF.COMPS:ANM:1,2008-08-01T15:30:00Z,27.5400,-82.7400,0.477,1111122 
COMPS,ioos:station:USF.COMPS:ANM:1,2008-08-01T15:36:00Z,27.5400,-82.7400,0.47,1111122 
COMPS,ioos:station:USF.COMPS:ANM:1,2008-08-01T15:42:00Z,27.5400,-82.7400,0.484,1111122 
COMPS,ioos:station:USF.COMPS:ANM:1,2008-08-01T15:48:00Z,27.5400,-82.7400,0.487,1111122 
COMPS,ioos:station:USF.COMPS:ANM:1,2008-08-01T15:54:00Z,27.5400,-82.7400,0.489,1111122 
COMPS,ioos:station:USF.COMPS:ANM:1,2008-08-01T16:00:00Z,27.5400,-82.7400,0.493,1111122 
COMPS,ioos:station:USF.COMPS:ANM:1,2008-08-01T16:06:00Z,27.5400,-82.7400,0.488,1111122 
COMPS,ioos:station:USF.COMPS:ANM:1,2008-08-01T16:12:00Z,27.5400,-82.7400,0.497,1111122 
COMPS,ioos:station:USF.COMPS:ANM:1,2008-08-01T16:18:00Z,27.5400,-82.7400,0.483,1111122 
COMPS,ioos:station:USF.COMPS:ANM:1,2008-08-01T16:24:00Z,27.5400,-82.7400,0.484,1111122 
COMPS,ioos:station:USF.COMPS:ANM:1,2008-08-01T16:30:00Z,27.5400,-82.7400,0.491,1111122 
COMPS,ioos:station:USF.COMPS:ANM:1,2008-08-01T16:36:00Z,27.5400,-82.7400,0.494,1111122 
COMPS,ioos:station:USF.COMPS:ANM:1,2008-08-01T16:42:00Z,27.5400,-82.7400,0.494,1111122 
COMPS,ioos:station:USF.COMPS:ANM:1,2008-08-01T16:48:00Z,27.5400,-82.7400,0.503,1111122 
COMPS,ioos:station:USF.COMPS:ANM:1,2008-08-01T16:54:00Z,27.5400,-82.7400,0.501,1111122 
COMPS,ioos:station:USF.COMPS:ANM:1,2008-08-01T17:00:00Z,27.5400,-82.7400,0.485,1111122 
COMPS,ioos:station:USF.COMPS:ANM:1,2008-08-01T17:06:00Z,27.5400,-82.7400,0.459,1111122 
COMPS,ioos:station:USF.COMPS:ANM:1,2008-08-01T17:12:00Z,27.5400,-82.7400,0.422,1111122 
COMPS,ioos:station:USF.COMPS:ANM:1,2008-08-01T17:18:00Z,27.5400,-82.7400,0.424,1111122 
COMPS,ioos:station:USF.COMPS:ANM:1,2008-08-01T17:24:00Z,27.5400,-82.7400,0.409,1111122 
COMPS,ioos:station:USF.COMPS:ANM:1,2008-08-01T17:30:00Z,27.5400,-82.7400,0.381,1111122 
COMPS,ioos:station:USF.COMPS:ANM:1,2008-08-01T17:36:00Z,27.5400,-82.7400,0.374,1111122 
COMPS,ioos:station:USF.COMPS:ANM:1,2008-08-01T17:42:00Z,27.5400,-82.7400,0.365,1111122 
COMPS,ioos:station:USF.COMPS:ANM:1,2008-08-01T17:48:00Z,27.5400,-82.7400,0.341,1111122 
COMPS,ioos:station:USF.COMPS:ANM:1,2008-08-01T17:54:00Z,27.5400,-82.7400,0.333,1111122 
COMPS,ioos:station:USF.COMPS:ANM:1,2008-08-01T18:00:00Z,27.5400,-82.7400,0.306,1111122 
COMPS,ioos:station:USF.COMPS:ANM:1,2008-08-01T18:06:00Z,27.5400,-82.7400,0.279,1111122 
COMPS,ioos:station:USF.COMPS:ANM:1,2008-08-01T18:12:00Z,27.5400,-82.7400,0.275,1111122 
COMPS,ioos:station:USF.COMPS:ANM:1,2008-08-01T18:18:00Z,27.5400,-82.7400,0.284,1111122 
COMPS,ioos:station:USF.COMPS:ANM:1,2008-08-01T18:24:00Z,27.5400,-82.7400,0.257,1111122 
COMPS,ioos:station:USF.COMPS:ANM:1,2008-08-01T18:30:00Z,27.5400,-82.7400,0.234,1111122 
COMPS,ioos:station:USF.COMPS:ANM:1,2008-08-01T18:36:00Z,27.5400,-82.7400,0.226,1111122 
COMPS,ioos:station:USF.COMPS:ANM:1,2008-08-01T18:42:00Z,27.5400,-82.7400,0.209,1111122 
COMPS,ioos:station:USF.COMPS:ANM:1,2008-08-01T18:48:00Z,27.5400,-82.7400,0.181,1111122 
COMPS,ioos:station:USF.COMPS:ANM:1,2008-08-01T18:54:00Z,27.5400,-82.7400,0.152,1111122 
COMPS,ioos:station:USF.COMPS:ANM:1,2008-08-01T19:00:00Z,27.5400,-82.7400,0.126,1111122 
COMPS,ioos:station:USF.COMPS:ANM:1,2008-08-01T19:06:00Z,27.5400,-82.7400,0.104,1111122 
COMPS,ioos:station:USF.COMPS:ANM:1,2008-08-01T19:12:00Z,27.5400,-82.7400,0.088,1111122 
COMPS,ioos:station:USF.COMPS:ANM:1,2008-08-01T19:18:00Z,27.5400,-82.7400,0.074,1111122 
COMPS,ioos:station:USF.COMPS:ANM:1,2008-08-01T19:24:00Z,27.5400,-82.7400,0.054,1111122 
COMPS,ioos:station:USF.COMPS:ANM:1,2008-08-01T19:30:00Z,27.5400,-82.7400,0.027,1111122 
COMPS,ioos:station:USF.COMPS:ANM:1,2008-08-01T19:36:00Z,27.5400,-82.7400,0.006,1111122 
COMPS,ioos:station:USF.COMPS:ANM:1,2008-08-01T19:42:00Z,27.5400,-82.7400,-0.016,1111122 
COMPS,ioos:station:USF.COMPS:ANM:1,2008-08-01T19:48:00Z,27.5400,-82.7400,-0.035,1111122 
COMPS,ioos:station:USF.COMPS:ANM:1,2008-08-01T19:54:00Z,27.5400,-82.7400,-0.05,1111122 
COMPS,ioos:station:USF.COMPS:ANM:1,2008-08-01T20:00:00Z,27.5400,-82.7400,-0.076,1111122 
COMPS,ioos:station:USF.COMPS:ANM:1,2008-08-01T20:06:00Z,27.5400,-82.7400,-0.088,1111122 
COMPS,ioos:station:USF.COMPS:ANM:1,2008-08-01T20:12:00Z,27.5400,-82.7400,-0.112,1111122 
COMPS,ioos:station:USF.COMPS:ANM:1,2008-08-01T20:18:00Z,27.5400,-82.7400,-0.135,1111122 
COMPS,ioos:station:USF.COMPS:ANM:1,2008-08-01T20:24:00Z,27.5400,-82.7400,-0.152,1111122 
COMPS,ioos:station:USF.COMPS:ANM:1,2008-08-01T20:30:00Z,27.5400,-82.7400,-0.177,1111122 
COMPS,ioos:station:USF.COMPS:ANM:1,2008-08-01T20:36:00Z,27.5400,-82.7400,-0.195,1111122 
COMPS,ioos:station:USF.COMPS:ANM:1,2008-08-01T20:42:00Z,27.5400,-82.7400,-0.204,1111122 
COMPS,ioos:station:USF.COMPS:ANM:1,2008-08-01T20:48:00Z,27.5400,-82.7400,-0.218,1111122 
COMPS,ioos:station:USF.COMPS:ANM:1,2008-08-01T20:54:00Z,27.5400,-82.7400,-0.24,1111122 
COMPS,ioos:station:USF.COMPS:ANM:1,2008-08-01T21:00:00Z,27.5400,-82.7400,-0.258,1111122 
COMPS,ioos:station:USF.COMPS:ANM:1,2008-08-01T21:06:00Z,27.5400,-82.7400,-0.281,1111122 
COMPS,ioos:station:USF.COMPS:ANM:1,2008-08-01T21:12:00Z,27.5400,-82.7400,-0.306,1111122 
COMPS,ioos:station:USF.COMPS:ANM:1,2008-08-01T21:18:00Z,27.5400,-82.7400,-0.328,1111122 
COMPS,ioos:station:USF.COMPS:ANM:1,2008-08-01T21:24:00Z,27.5400,-82.7400,-0.34,1111122 
COMPS,ioos:station:USF.COMPS:ANM:1,2008-08-01T21:30:00Z,27.5400,-82.7400,-0.34,1111122 
COMPS,ioos:station:USF.COMPS:ANM:1,2008-08-01T21:36:00Z,27.5400,-82.7400,-0.35,1111122 
COMPS,ioos:station:USF.COMPS:ANM:1,2008-08-01T21:42:00Z,27.5400,-82.7400,-0.368,1111122 
COMPS,ioos:station:USF.COMPS:ANM:1,2008-08-01T21:48:00Z,27.5400,-82.7400,-0.391,1111122 
COMPS,ioos:station:USF.COMPS:ANM:1,2008-08-01T21:54:00Z,27.5400,-82.7400,-0.397,1111122 
COMPS,ioos:station:USF.COMPS:ANM:1,2008-08-01T22:00:00Z,27.5400,-82.7400,-0.408,1111122 
COMPS,ioos:station:USF.COMPS:ANM:1,2008-08-01T22:06:00Z,27.5400,-82.7400,-0.423,1111122 
COMPS,ioos:station:USF.COMPS:ANM:1,2008-08-01T22:12:00Z,27.5400,-82.7400,-0.433,1111122 
COMPS,ioos:station:USF.COMPS:ANM:1,2008-08-01T22:18:00Z,27.5400,-82.7400,-0.434,1111122 
COMPS,ioos:station:USF.COMPS:ANM:1,2008-08-01T22:24:00Z,27.5400,-82.7400,-0.435,1111122 
COMPS,ioos:station:USF.COMPS:ANM:1,2008-08-01T22:30:00Z,27.5400,-82.7400,-0.449,1111122 
COMPS,ioos:station:USF.COMPS:ANM:1,2008-08-01T22:36:00Z,27.5400,-82.7400,-0.456,1111122 
COMPS,ioos:station:USF.COMPS:ANM:1,2008-08-01T22:42:00Z,27.5400,-82.7400,-0.467,1111122 
COMPS,ioos:station:USF.COMPS:ANM:1,2008-08-01T22:48:00Z,27.5400,-82.7400,-0.479,1111122 
COMPS,ioos:station:USF.COMPS:ANM:1,2008-08-01T22:54:00Z,27.5400,-82.7400,-0.481,1111122 
COMPS,ioos:station:USF.COMPS:ANM:1,2008-08-01T23:00:00Z,27.5400,-82.7400,-0.49,1111122 
COMPS,ioos:station:USF.COMPS:ANM:1,2008-08-01T23:06:00Z,27.5400,-82.7400,-0.488,1111122 
COMPS,ioos:station:USF.COMPS:ANM:1,2008-08-01T23:12:00Z,27.5400,-82.7400,-0.493,1111122 
COMPS,ioos:station:USF.COMPS:ANM:1,2008-08-01T23:18:00Z,27.5400,-82.7400,-0.494,1111122 
COMPS,ioos:station:USF.COMPS:ANM:1,2008-08-01T23:24:00Z,27.5400,-82.7400,-0.484,1111122 
COMPS,ioos:station:USF.COMPS:ANM:1,2008-08-01T23:30:00Z,27.5400,-82.7400,-0.485,1111122 
COMPS,ioos:station:USF.COMPS:ANM:1,2008-08-01T23:36:00Z,27.5400,-82.7400,-0.487,1111122 
COMPS,ioos:station:USF.COMPS:ANM:1,2008-08-01T23:42:00Z,27.5400,-82.7400,-0.493,1111122 
COMPS,ioos:station:USF.COMPS:ANM:1,2008-08-01T23:48:00Z,27.5400,-82.7400,-0.483,1111122 
COMPS,ioos:station:USF.COMPS:ANM:1,2008-08-01T23:54:00Z,27.5400,-82.7400,-0.475,1111122 
COMPS,ioos:station:USF.COMPS:ANM:1,2008-08-02T00:00:00Z,27.5400,-82.7400,-0.467,1111122 
COMPS,ioos:station:USF.COMPS:ANM:1,2008-08-02T00:06:00Z,27.5400,-82.7400,-0.461,1111122 
COMPS,ioos:station:USF.COMPS:ANM:1,2008-08-02T00:12:00Z,27.5400,-82.7400,-0.462,1111122 
COMPS,ioos:station:USF.COMPS:ANM:1,2008-08-02T00:18:00Z,27.5400,-82.7400,-0.46,1111122 
COMPS,ioos:station:USF.COMPS:ANM:1,2008-08-02T00:24:00Z,27.5400,-82.7400,-0.451,1111122 
COMPS,ioos:station:USF.COMPS:ANM:1,2008-08-02T00:30:00Z,27.5400,-82.7400,-0.439,1111122 
COMPS,ioos:station:USF.COMPS:ANM:1,2008-08-02T00:36:00Z,27.5400,-82.7400,-0.437,1111122 
COMPS,ioos:station:USF.COMPS:ANM:1,2008-08-02T00:42:00Z,27.5400,-82.7400,-0.427,1111122 
COMPS,ioos:station:USF.COMPS:ANM:1,2008-08-02T00:48:00Z,27.5400,-82.7400,-0.414,1111122 
COMPS,ioos:station:USF.COMPS:ANM:1,2008-08-02T00:54:00Z,27.5400,-82.7400,-0.405,1111122 
COMPS,ioos:station:USF.COMPS:ANM:1,2008-08-02T01:00:00Z,27.5400,-82.7400,-0.399,1111122 
COMPS,ioos:station:USF.COMPS:ANM:1,2008-08-02T01:06:00Z,27.5400,-82.7400,-0.394,1111122 
COMPS,ioos:station:USF.COMPS:ANM:1,2008-08-02T01:12:00Z,27.5400,-82.7400,-0.396,1111122 
COMPS,ioos:station:USF.COMPS:ANM:1,2008-08-02T01:18:00Z,27.5400,-82.7400,-0.385,1111122 
COMPS,ioos:station:USF.COMPS:ANM:1,2008-08-02T01:24:00Z,27.5400,-82.7400,-0.359,1111122 
COMPS,ioos:station:USF.COMPS:ANM:1,2008-08-02T01:30:00Z,27.5400,-82.7400,-0.337,1111122 
COMPS,ioos:station:USF.COMPS:ANM:1,2008-08-02T01:36:00Z,27.5400,-82.7400,-0.326,1111122 
COMPS,ioos:station:USF.COMPS:ANM:1,2008-08-02T01:42:00Z,27.5400,-82.7400,-0.316,1111122 
COMPS,ioos:station:USF.COMPS:ANM:1,2008-08-02T01:48:00Z,27.5400,-82.7400,-0.3,1111122 
COMPS,ioos:station:USF.COMPS:ANM:1,2008-08-02T01:54:00Z,27.5400,-82.7400,-0.29,1111122 
COMPS,ioos:station:USF.COMPS:ANM:1,2008-08-02T02:00:00Z,27.5400,-82.7400,-0.288,1111122 
COMPS,ioos:station:USF.COMPS:ANM:1,2008-08-02T02:06:00Z,27.5400,-82.7400,-0.278,1111122 
COMPS,ioos:station:USF.COMPS:ANM:1,2008-08-02T02:12:00Z,27.5400,-82.7400,-0.258,1111122 
COMPS,ioos:station:USF.COMPS:ANM:1,2008-08-02T02:18:00Z,27.5400,-82.7400,-0.24,1111122 
COMPS,ioos:station:USF.COMPS:ANM:1,2008-08-02T02:24:00Z,27.5400,-82.7400,-0.225,1111122 
COMPS,ioos:station:USF.COMPS:ANM:1,2008-08-02T02:30:00Z,27.5400,-82.7400,-0.205,1111122 
COMPS,ioos:station:USF.COMPS:ANM:1,2008-08-02T02:36:00Z,27.5400,-82.7400,-0.201,1111122 
COMPS,ioos:station:USF.COMPS:ANM:1,2008-08-02T02:42:00Z,27.5400,-82.7400,-0.187,1111122 
COMPS,ioos:station:USF.COMPS:ANM:1,2008-08-02T02:48:00Z,27.5400,-82.7400,-0.175,1111122 
COMPS,ioos:station:USF.COMPS:ANM:1,2008-08-02T02:54:00Z,27.5400,-82.7400,-0.162,1111122 